TimeCST,TemperatureF,Dew PointF,Humidity,Sea Level PressureIn,VisibilityMPH,Wind Direction,Wind SpeedMPH,Gust SpeedMPH,PrecipitationIn,Events,Conditions,WindDirDegrees,DateUTC
12:56 AM,37.9,28.9,70,29.71,-9999.0,West,8.1,-,N/A,,Unknown,280,2013-01-19 06:56:00
1:56 AM,37.9,28.9,70,29.73,-9999.0,NNW,17.3,25.3,N/A,,Unknown,340,2013-01-19 07:56:00
2:56 AM,35.1,28.0,76,29.74,-9999.0,North,8.1,-,N/A,,Unknown,360,2013-01-19 08:56:00
3:56 AM,36.0,28.0,73,29.73,-9999.0,NW,15.0,-,N/A,,Unknown,310,2013-01-19 09:56:00
4:56 AM,37.0,28.0,70,29.73,-9999.0,NW,12.7,-,N/A,,Unknown,310,2013-01-19 10:56:00
5:56 AM,37.0,28.0,70,29.76,-9999.0,NNW,13.8,-,N/A,,Unknown,330,2013-01-19 11:56:00
6:56 AM,37.0,28.9,73,29.79,-9999.0,NW,16.1,-,N/A,,Unknown,320,2013-01-19 12:56:00
7:56 AM,37.0,28.9,73,29.80,-9999.0,NW,20.7,-,N/A,,Unknown,320,2013-01-19 13:56:00
8:56 AM,37.0,30.0,76,29.83,-9999.0,NNW,25.3,35.7,N/A,,Unknown,330,2013-01-19 14:56:00
9:56 AM,37.0,30.0,76,29.86,-9999.0,NW,21.9,29.9,N/A,,Unknown,320,2013-01-19 15:56:00
10:56 AM,35.1,28.0,76,29.90,-9999.0,North,29.9,38.0,N/A,,Unknown,350,2013-01-19 16:56:00
11:56 AM,27.0,23.0,85,29.99,-9999.0,North,35.7,44.9,N/A,,Unknown,350,2013-01-19 17:56:00
12:56 PM,19.9,12.0,71,30.05,-9999.0,NNW,38.0,46.0,N/A,,Unknown,340,2013-01-19 18:56:00
1:56 PM,17.1,7.0,65,30.09,-9999.0,North,39.1,51.8,N/A,,Unknown,350,2013-01-19 19:56:00
2:56 PM,12.9,7.0,77,30.15,-9999.0,NNW,31.1,40.3,N/A,,Unknown,330,2013-01-19 20:56:00
3:56 PM,9.0,-0.9,64,30.22,-9999.0,NNW,34.5,47.2,N/A,,Unknown,340,2013-01-19 21:56:00
4:56 PM,6.1,-2.0,69,30.28,-9999.0,NNW,27.6,40.3,N/A,,Unknown,340,2013-01-19 22:56:00
5:56 PM,5.0,-0.9,76,30.33,-9999.0,NNW,31.1,38.0,N/A,,Unknown,340,2013-01-19 23:56:00
6:56 PM,3.9,-2.9,73,30.35,-9999.0,North,29.9,36.8,N/A,,Unknown,350,2013-01-20 00:56:00
7:56 PM,3.0,-4.0,73,30.40,-9999.0,NNW,23.0,31.1,N/A,,Unknown,340,2013-01-20 01:56:00
8:56 PM,1.9,-6.0,69,30.40,-9999.0,North,20.7,27.6,0.02,,Unknown,350,2013-01-20 02:56:00
9:56 PM,1.0,-7.1,69,30.43,-9999.0,North,19.6,31.1,N/A,,Unknown,350,2013-01-20 03:56:00
10:56 PM,1.0,-6.0,72,30.43,-9999.0,NNW,17.3,-,N/A,,Unknown,340,2013-01-20 04:56:00
11:56 PM,1.0,-7.1,69,30.45,-9999.0,NNW,19.6,-,N/A,,Unknown,340,2013-01-20 05:56:00